CZ-6A DEB, 54634

Orbit data source: Space-Track

CZ-6A DEB, 54634 is space debris in SSO originally from a launch on Fri, 11 Nov 2022 UTC launched from the Taiyaun Space Center, China (TSC). Debris objects in space refer to the collection of defunct objects orbiting the Earth. Examples of debris include non-operational satellites, rocket bodies, and fragments generated from explosions, collisions, or faulty payload assembly.

Loading next visibility...
Identifier
54634, 2022-151PL
Orbit
SSO
Country
Flag of CNCN / PRC
Related business
Manufacturer
SAST
Mission
Spacecraft
Bus & Motor
Unknown
Mass
Unknown
Launch date (UTC)
2022-11-11 (3 years ago)
Launch vehicle
Unknown
Launch site
Taiyaun Space Center, China (TSC)
Object type
Payload
Rocket body
Debris
Shape & HBR
Unknown shape, 0.1 m
Radar Cross Section
Small (<0.1 m²)

Expand to show TLE details & history
Last TLE update: 9 hours ago

TLE from 9 hours ago
0 CZ-6A DEB
1 54634U 22151PL  25355.47610055  .00005392  00000-0  20628-2 0  9990
2 54634  98.7817   6.8328 0033272  81.7202 278.7751 14.30748935159745
Epoch: 2025-12-21T11:25Z
TLE epoch observation values (Epoch: 2025-12-21T11:25:35.087Z)
Latitude
-0.00002°
Longitude
105.1486°
Altitude
788.594 km
Speed
7.461 km/s
True Right ascension
00h 27m 19s
True Declination
0° 00' 00"
Sunlit
Object was in daylight at epoch
Visualization orbit readout
Latitude
Unknown
Longitude
Unknown
Altitude
Unknown
Speed
Unknown
Apparent Right ascension
Unknown
Apparent Declination
Unknown
Sunlit
N/A
Visualization observer readout
Local Sidereal Time
19:33:36
Azimuth
Unknown
Elevation
Unknown
Doppler factor
Unknown
Orbital elements
Apogee altitude
810.214 km
Perigee altitude
762.538 km
Semi-major axis
7,164.513 km
Eccentricity
0.00333
Inclination
98.7817°
RAAN
6.8328°
Arg. of periapsis
81.7202°
True anomaly
278.39806°
Mean anomaly
278.7751°
Eccentric anomaly
278.5866°
Mean motion
3.57901 °/min
Orbital period
100.59 mins
BSTAR
0.0020628
Loading maneuver chart data...
Computing Atmospheric mass density...
Loading historical data...
Loading historical data...
Loading historical data...
Loading historical data...
Loading historical data...
Loading historical data...
Loading historical data...

Documentation

Showing up to 5 results
|